Location: Haram ta Haram Freeway
(35.0583°N, 51.4202°E)
Time: 14:57:08
(UTC+03:30)

N. Korean satellite - Visible Passes

Search period start: 03 October 2022 00:00
Search period end: 13 October 2022 00:00
Orbit: 426 x 468 km, 97.3° (Epoch: 02 October)

Date Brightness Start Highest point End Pass type
(mag) Time Alt. Az. Time Alt. Az. Time Alt. Az.
04 Oct 7.3 05:02:37 10° NNE 05:05:47 49° E 05:08:56 10° S visible
05 Oct 9.6 04:27:51 10° ENE 04:29:43 14° E 04:31:35 10° SE visible
06 Oct 6.2 05:23:14 10° N 05:26:30 73° WNW 05:29:45 10° SSW visible
07 Oct 8.6 04:47:33 10° NE 04:50:25 28° E 04:53:17 10° SSE visible
09 Oct 6.9 05:07:37 10° NNE 05:10:51 60° E 05:14:05 10° S visible
10 Oct 9.5 04:32:20 10° NE 04:34:33 17° E 04:36:45 10° SE visible
11 Oct 6.3 05:27:46 10° N 05:31:00 62° WNW 05:34:15 10° SSW visible
12 Oct 8.3 04:51:42 10° NNE 04:54:41 32° E 04:57:41 10° SSE visible
